This is the latest recevied weather packets stored in our database for station/object N5PUP-13. If no packets are shown the sender has not sent any weather packets the latest 10 day(s).
| Time | Temp. | Humidity | Pressure | Rain* | Wind** | Luminosity | Snow |
|---|---|---|---|---|---|---|---|
| 1788112500 | 37.78° C | 30% | 1013.7 hPa | 0 mm | - | - | - |
| 1788112200 | 37.78° C | 30% | 1013.7 hPa | 0 mm | - | - | - |
| 1788111900 | 37.78° C | 31% | 1013.9 hPa | 0 mm | - | - | - |
| 1788111600 | 37.78° C | 31% | 1013.9 hPa | 0 mm | - | - | - |
| 1788111300 | 37.78° C | 31% | 1013.9 hPa | 0 mm | - | - | - |
| 1788111000 | 37.22° C | 32% | 1014 hPa | 0 mm | - | - | - |
| 1788110700 | 37.22° C | 31% | 1014 hPa | 0 mm | - | - | - |
| 1788110400 | 37.22° C | 33% | 1014 hPa | 0 mm | - | - | - |
| 1788110100 | 37.22° C | 32% | 1014.1 hPa | 0 mm | - | - | - |
| 1788109800 | 37.22° C | 31% | 1014.1 hPa | 0 mm | - | - | - |
| 1788109500 | 36.67° C | 32% | 1014.3 hPa | 0 mm | - | - | - |
| 1788109200 | 36.67° C | 33% | 1014.2 hPa | 0 mm | - | - | - |
| 1788108900 | 36.67° C | 33% | 1014.2 hPa | 0 mm | - | - | - |
| 1788108600 | 36.11° C | 33% | 1014.2 hPa | 0 mm | - | - | - |
| 1788108300 | 36.11° C | 33% | 1014.2 hPa | 0 mm | - | - | - |
| 1788108000 | 36.11° C | 33% | 1014.3 hPa | 0 mm | - | - | - |
| 1788107700 | 36.11° C | 34% | 1014.2 hPa | 0 mm | - | - | - |
| 1788107400 | 35.56° C | 34% | 1014.3 hPa | 0 mm | - | - | - |
| 1788107100 | 35.56° C | 34% | 1014.4 hPa | 0 mm | - | - | - |
| 1788106800 | 36.11° C | 34% | 1014.4 hPa | 0 mm | - | - | - |
| 1788106500 | 36.11° C | 34% | 1014.5 hPa | 0 mm | - | - | - |
| 1788106200 | 35° C | 35% | 1014.5 hPa | 0 mm | - | - | - |
| 1788105900 | 34.44° C | 36% | 1014.5 hPa | 0 mm | - | - | - |
| 1788105600 | 35° C | 36% | 1014.5 hPa | 0 mm | - | - | - |
| 1788105300 | 35° C | 36% | 1014.4 hPa | 0 mm | - | - | - |
* Rain latest hour (hover to see other rain measurements)
** Current wind speed in m/s (hover to see current wind gust speed)